TimeEDT,TemperatureF,Dew PointF,Humidity,Sea Level PressureIn,VisibilityMPH,Wind Direction,Wind SpeedMPH,Gust SpeedMPH,PrecipitationIn,Events,Conditions,WindDirDegrees,DateUTC
12:15 AM,36.5,28.9,74,30.01,10.0,Calm,Calm,-,N/A,,Overcast,0,2013-03-29 04:15:00
12:55 AM,36.9,29.3,74,30.02,10.0,Calm,Calm,-,N/A,,Overcast,0,2013-03-29 04:55:00
1:15 AM,38.7,30.2,72,30.02,10.0,West,4.6,-,N/A,,Overcast,280,2013-03-29 05:15:00
1:35 AM,38.1,30.9,75,30.02,10.0,WNW,4.6,-,N/A,,Overcast,290,2013-03-29 05:35:00
1:55 AM,38.7,31.5,75,30.01,10.0,Calm,Calm,-,N/A,,Overcast,0,2013-03-29 05:55:00
2:15 AM,37.4,31.1,78,30.01,10.0,Calm,Calm,-,N/A,,Overcast,0,2013-03-29 06:15:00
2:35 AM,38.1,31.8,78,30.02,10.0,West,3.5,-,N/A,,Overcast,260,2013-03-29 06:35:00
2:55 AM,37.9,32.0,79,30.01,10.0,Calm,Calm,-,N/A,,Overcast,0,2013-03-29 06:55:00
3:15 AM,37.6,32.0,80,30.01,10.0,Calm,Calm,-,N/A,,Overcast,0,2013-03-29 07:15:00
3:35 AM,37.4,32.0,81,30.01,10.0,West,5.8,-,N/A,,Overcast,270,2013-03-29 07:35:00
3:55 AM,37.4,32.0,81,30.01,10.0,Calm,Calm,-,N/A,,Overcast,0,2013-03-29 07:55:00
4:15 AM,36.9,32.0,83,30.01,10.0,West,6.9,-,N/A,Rain,Rain,280,2013-03-29 08:15:00
4:35 AM,36.7,32.4,84,30.01,10.0,NW,3.5,-,N/A,,Overcast,310,2013-03-29 08:35:00
4:55 AM,36.5,32.2,84,30.01,10.0,NW,3.5,-,N/A,,Overcast,310,2013-03-29 08:55:00
5:15 AM,36.7,32.4,84,30.01,10.0,Calm,Calm,-,N/A,,Overcast,0,2013-03-29 09:15:00
5:35 AM,36.3,32.2,85,30.01,10.0,Calm,Calm,-,N/A,,Overcast,0,2013-03-29 09:35:00
5:55 AM,36.0,32.0,86,30.02,10.0,Calm,Calm,-,N/A,,Overcast,0,2013-03-29 09:55:00
6:15 AM,36.1,32.0,85,30.02,10.0,West,3.5,-,N/A,,Overcast,260,2013-03-29 10:15:00
6:35 AM,36.1,32.4,86,30.02,10.0,West,3.5,-,N/A,,Overcast,270,2013-03-29 10:35:00
6:55 AM,36.1,32.0,85,30.02,10.0,Calm,Calm,-,N/A,,Mostly Cloudy,0,2013-03-29 10:55:00
7:15 AM,36.0,32.0,86,30.03,10.0,Calm,Calm,-,N/A,,Overcast,0,2013-03-29 11:15:00
7:35 AM,35.8,32.0,86,30.03,10.0,Calm,Calm,-,N/A,,Overcast,0,2013-03-29 11:35:00
7:55 AM,36.7,32.7,86,30.04,10.0,West,3.5,-,N/A,,Overcast,260,2013-03-29 11:55:00
8:15 AM,37.0,32.5,84,30.04,10.0,West,3.5,-,N/A,,Overcast,280,2013-03-29 12:15:00
8:35 AM,37.6,32.7,83,30.04,10.0,West,3.5,-,N/A,,Overcast,270,2013-03-29 12:35:00
8:55 AM,37.8,32.9,83,30.04,10.0,WNW,6.9,-,N/A,,Overcast,290,2013-03-29 12:55:00
9:15 AM,38.7,32.9,80,30.04,10.0,WNW,9.2,-,N/A,,Overcast,290,2013-03-29 13:15:00
9:35 AM,38.5,33.3,81,30.04,10.0,WNW,8.1,-,N/A,,Overcast,290,2013-03-29 13:35:00
9:55 AM,38.7,32.7,79,30.04,10.0,West,5.8,-,N/A,,Overcast,280,2013-03-29 13:55:00
10:15 AM,38.3,32.7,80,30.05,7.0,WNW,10.4,-,N/A,Rain,Rain,300,2013-03-29 14:15:00
10:35 AM,37.8,33.8,86,30.05,10.0,WNW,4.6,-,N/A,Rain,Light Rain,290,2013-03-29 14:35:00
10:55 AM,38.7,34.0,83,30.05,10.0,WNW,5.8,-,N/A,,Overcast,300,2013-03-29 14:55:00
11:15 AM,40.5,34.2,78,30.05,10.0,WNW,8.1,-,N/A,,Overcast,290,2013-03-29 15:15:00
11:35 AM,42.1,34.0,73,30.04,10.0,West,10.4,-,N/A,,Mostly Cloudy,270,2013-03-29 15:35:00
11:55 AM,43.7,33.3,67,30.03,10.0,WNW,8.1,-,N/A,,Overcast,290,2013-03-29 15:55:00
12:15 PM,43.9,31.3,61,30.03,10.0,WNW,9.2,-,N/A,,Mostly Cloudy,300,2013-03-29 16:15:00
12:35 PM,43.2,29.5,59,30.02,10.0,West,9.2,-,N/A,,Overcast,270,2013-03-29 16:35:00
12:55 PM,43.3,29.3,58,30.02,10.0,West,13.8,18.4,N/A,,Overcast,280,2013-03-29 16:55:00
1:15 PM,43.7,29.5,57,30.02,10.0,WNW,11.5,-,N/A,,Overcast,300,2013-03-29 17:15:00
1:35 PM,43.7,28.9,56,30.01,10.0,NW,9.2,16.1,N/A,,Overcast,310,2013-03-29 17:35:00
1:55 PM,40.8,29.3,64,30.01,7.0,NW,6.9,17.3,N/A,Rain,Light Rain,310,2013-03-29 17:55:00
2:15 PM,42.1,28.6,59,30.00,10.0,NW,10.4,-,N/A,,Overcast,310,2013-03-29 18:15:00
2:35 PM,43.3,27.9,54,30.00,10.0,WNW,9.2,18.4,N/A,,Overcast,300,2013-03-29 18:35:00
2:55 PM,44.4,28.4,53,29.99,10.0,WNW,11.5,21.9,N/A,,Mostly Cloudy,290,2013-03-29 18:55:00
3:15 PM,42.1,27.5,56,29.99,10.0,West,9.2,-,N/A,,Overcast,270,2013-03-29 19:15:00
3:35 PM,43.0,27.9,55,29.99,10.0,WNW,5.8,-,N/A,,Overcast,290,2013-03-29 19:35:00
3:55 PM,45.9,26.6,47,29.98,10.0,West,15.0,20.7,N/A,,Mostly Cloudy,260,2013-03-29 19:55:00
4:15 PM,43.0,26.4,52,29.98,10.0,NNW,11.5,18.4,N/A,,Overcast,330,2013-03-29 20:15:00
4:35 PM,43.7,26.1,50,29.98,10.0,NW,10.4,-,N/A,,Overcast,320,2013-03-29 20:35:00
4:55 PM,43.0,25.3,50,29.98,10.0,WNW,6.9,16.1,N/A,,Overcast,290,2013-03-29 20:55:00
5:15 PM,42.3,26.8,54,29.99,10.0,WNW,6.9,-,N/A,,Overcast,300,2013-03-29 21:15:00
5:35 PM,41.7,26.6,55,29.99,10.0,NW,13.8,17.3,N/A,,Overcast,310,2013-03-29 21:35:00
5:55 PM,41.0,27.3,58,30.00,10.0,WNW,6.9,-,N/A,,Overcast,300,2013-03-29 21:55:00
6:15 PM,41.0,27.5,59,30.00,10.0,West,4.6,-,N/A,,Overcast,280,2013-03-29 22:15:00
6:35 PM,40.6,27.1,59,30.01,10.0,West,9.2,-,N/A,,Overcast,280,2013-03-29 22:35:00
6:55 PM,39.7,27.5,62,30.01,10.0,NW,8.1,-,N/A,,Overcast,310,2013-03-29 22:55:00
7:15 PM,39.7,27.1,61,30.01,10.0,NW,8.1,-,N/A,,Overcast,310,2013-03-29 23:15:00
7:35 PM,39.6,27.0,61,30.02,10.0,WNW,6.9,-,N/A,,Overcast,300,2013-03-29 23:35:00
7:55 PM,39.4,27.0,61,30.02,10.0,WNW,6.9,-,N/A,,Overcast,290,2013-03-29 23:55:00
8:15 PM,38.8,27.1,63,30.02,10.0,WNW,6.9,-,N/A,,Overcast,290,2013-03-30 00:15:00
8:35 PM,38.7,27.3,64,30.03,10.0,NW,4.6,-,N/A,,Overcast,310,2013-03-30 00:35:00
8:55 PM,38.7,27.3,64,30.04,10.0,WNW,3.5,-,N/A,,Overcast,300,2013-03-30 00:55:00
9:15 PM,37.9,27.7,67,30.04,10.0,NW,6.9,-,N/A,,Overcast,310,2013-03-30 01:15:00
9:35 PM,37.8,29.3,72,30.05,10.0,NW,8.1,-,N/A,,Overcast,310,2013-03-30 01:35:00
9:55 PM,36.9,30.0,76,30.05,10.0,WNW,4.6,-,N/A,,Mostly Cloudy,300,2013-03-30 01:55:00
10:15 PM,36.9,30.2,77,30.05,10.0,NW,3.5,-,N/A,,Overcast,310,2013-03-30 02:15:00
10:35 PM,36.5,30.9,80,30.05,10.0,WNW,4.6,-,N/A,Rain,Light Rain,290,2013-03-30 02:35:00
10:55 PM,35.8,30.9,82,30.05,10.0,NW,3.5,-,N/A,,Overcast,320,2013-03-30 02:55:00
11:15 PM,35.4,30.9,84,30.05,10.0,Calm,Calm,-,N/A,,Overcast,0,2013-03-30 03:15:00
11:35 PM,35.4,30.9,84,30.05,10.0,Calm,Calm,-,N/A,,Overcast,0,2013-03-30 03:35:00
11:55 PM,35.2,30.2,82,30.04,10.0,Calm,Calm,-,N/A,,Overcast,0,2013-03-30 03:55:00